Year,Month,Day,Hour,Minute,Value (Times are PST for temperature in C)
2017,04,19,00,00,9.10
2017,04,19,00,01,9.10
2017,04,19,00,02,9.10
2017,04,19,00,03,9.10
2017,04,19,00,04,9.10
2017,04,19,00,05,9.10
2017,04,19,00,06,9.10
2017,04,19,00,07,9.10
2017,04,19,00,08,9.10
2017,04,19,00,09,9.10
2017,04,19,00,10,9.10
2017,04,19,00,11,9.10
2017,04,19,00,12,9.00
2017,04,19,00,13,9.00
2017,04,19,00,14,9.00
2017,04,19,00,15,9.00
2017,04,19,00,16,9.00
2017,04,19,00,17,9.00
2017,04,19,00,18,9.00
2017,04,19,00,19,9.00
2017,04,19,00,20,8.90
2017,04,19,00,21,8.90
2017,04,19,00,22,8.90
2017,04,19,00,23,8.90
2017,04,19,00,24,8.90
2017,04,19,00,25,8.90
2017,04,19,00,26,8.90
2017,04,19,00,27,8.90
2017,04,19,00,28,8.90
2017,04,19,00,29,8.80
2017,04,19,00,30,8.80
2017,04,19,00,31,8.80
2017,04,19,00,32,8.80
2017,04,19,00,33,8.80
2017,04,19,00,34,8.80
2017,04,19,00,35,8.80
2017,04,19,00,36,8.80
2017,04,19,00,37,8.80
2017,04,19,00,38,8.80
2017,04,19,00,39,8.80
2017,04,19,00,40,8.80
2017,04,19,00,41,8.70
2017,04,19,00,42,8.70
2017,04,19,00,43,8.70
2017,04,19,00,44,8.70
2017,04,19,00,45,8.70
2017,04,19,00,46,8.70
2017,04,19,00,47,8.70
2017,04,19,00,48,8.70
2017,04,19,00,49,8.70
2017,04,19,00,50,8.60
2017,04,19,00,51,8.60
2017,04,19,00,52,8.60
2017,04,19,00,53,8.60
2017,04,19,00,54,8.60
2017,04,19,00,55,8.50
2017,04,19,00,56,8.50
2017,04,19,00,57,8.50
2017,04,19,00,58,8.50
2017,04,19,00,59,8.40
2017,04,19,01,00,8.40
2017,04,19,01,01,8.40
2017,04,19,01,02,8.40
2017,04,19,01,03,8.40
2017,04,19,01,04,8.40
2017,04,19,01,05,8.40
2017,04,19,01,06,8.30
2017,04,19,01,07,8.30
2017,04,19,01,08,8.30
2017,04,19,01,09,8.30
2017,04,19,01,10,8.20
2017,04,19,01,11,8.20
2017,04,19,01,12,8.20
2017,04,19,01,13,8.20
2017,04,19,01,14,8.20
2017,04,19,01,15,8.10
2017,04,19,01,16,8.10
2017,04,19,01,17,8.10
2017,04,19,01,18,8.10
2017,04,19,01,19,8.10
2017,04,19,01,20,8.10
2017,04,19,01,21,8.10
2017,04,19,01,22,8.10
2017,04,19,01,23,8.10
2017,04,19,01,24,8.10
2017,04,19,01,25,8.10
2017,04,19,01,26,8.10
2017,04,19,01,27,8.10
2017,04,19,01,28,8.10
2017,04,19,01,29,8.20
2017,04,19,01,30,8.10
2017,04,19,01,31,8.20
2017,04,19,01,32,8.20
2017,04,19,01,33,8.20
2017,04,19,01,34,8.20
2017,04,19,01,35,8.20
2017,04,19,01,36,8.20
2017,04,19,01,37,8.20
2017,04,19,01,38,8.20
2017,04,19,01,39,8.20
2017,04,19,01,40,8.20
2017,04,19,01,41,8.20
2017,04,19,01,42,8.20
2017,04,19,01,43,8.10
2017,04,19,01,44,8.10
2017,04,19,01,45,8.10
2017,04,19,01,46,8.10
2017,04,19,01,47,8.00
2017,04,19,01,48,8.00
2017,04,19,01,49,8.00
2017,04,19,01,50,7.90
2017,04,19,01,51,7.90
2017,04,19,01,52,7.90
2017,04,19,01,53,7.90
2017,04,19,01,54,7.90
2017,04,19,01,55,7.80
2017,04,19,01,56,7.80
2017,04,19,01,57,7.80
2017,04,19,01,58,7.80
2017,04,19,01,59,7.80
2017,04,19,02,00,7.70
2017,04,19,02,01,7.70
2017,04,19,02,02,7.70
2017,04,19,02,03,7.70
2017,04,19,02,04,7.70
2017,04,19,02,05,7.70
2017,04,19,02,06,7.60
2017,04,19,02,07,7.60
2017,04,19,02,08,7.60
2017,04,19,02,09,7.60
2017,04,19,02,10,7.60
2017,04,19,02,11,7.60
2017,04,19,02,12,7.60
2017,04,19,02,13,7.50
2017,04,19,02,14,7.50
2017,04,19,02,15,7.50
2017,04,19,02,16,7.50
2017,04,19,02,17,7.50
2017,04,19,02,18,7.50
2017,04,19,02,19,7.50
2017,04,19,02,20,7.50
2017,04,19,02,21,7.50
2017,04,19,02,22,7.60
2017,04,19,02,23,7.60
2017,04,19,02,24,7.60
2017,04,19,02,25,7.70
2017,04,19,02,26,7.70
2017,04,19,02,27,7.70
2017,04,19,02,28,7.70
2017,04,19,02,29,7.70
2017,04,19,02,30,7.80
2017,04,19,02,31,7.80
2017,04,19,02,32,7.80
2017,04,19,02,33,7.90
2017,04,19,02,34,8.00
2017,04,19,02,35,8.00
2017,04,19,02,36,8.10
2017,04,19,02,37,8.10
2017,04,19,02,38,8.20
2017,04,19,02,39,8.20
2017,04,19,02,40,8.20
2017,04,19,02,41,8.20
2017,04,19,02,42,8.10
2017,04,19,02,43,8.10
2017,04,19,02,44,8.10
2017,04,19,02,45,8.00
2017,04,19,02,46,8.00
2017,04,19,02,47,7.90
2017,04,19,02,48,7.90
2017,04,19,02,49,7.80
2017,04,19,02,50,7.80
2017,04,19,02,51,7.70
2017,04,19,02,52,7.70
2017,04,19,02,53,7.70
2017,04,19,02,54,7.70
2017,04,19,02,55,7.70
2017,04,19,02,56,7.70
2017,04,19,02,57,7.70
2017,04,19,02,58,7.70
2017,04,19,02,59,7.60
2017,04,19,03,00,7.60
2017,04,19,03,01,7.60
2017,04,19,03,02,7.60
2017,04,19,03,03,7.60
2017,04,19,03,04,7.60
2017,04,19,03,05,7.50
2017,04,19,03,06,7.50
2017,04,19,03,07,7.40
2017,04,19,03,08,7.40
2017,04,19,03,09,7.40
2017,04,19,03,10,7.40
2017,04,19,03,11,7.40
2017,04,19,03,12,7.40
2017,04,19,03,13,7.50
2017,04,19,03,14,7.50
2017,04,19,03,15,7.50
2017,04,19,03,16,7.50
2017,04,19,03,17,7.60
2017,04,19,03,18,7.60
2017,04,19,03,19,7.70
2017,04,19,03,20,7.70
2017,04,19,03,21,7.80
2017,04,19,03,22,7.80
2017,04,19,03,23,7.90
2017,04,19,03,24,7.90
2017,04,19,03,25,7.90
2017,04,19,03,26,7.90
2017,04,19,03,27,7.90
2017,04,19,03,28,7.80
2017,04,19,03,29,7.80
2017,04,19,03,30,7.80
2017,04,19,03,31,7.70
2017,04,19,03,32,7.70
2017,04,19,03,33,7.60
2017,04,19,03,34,7.60
2017,04,19,03,35,7.60
2017,04,19,03,36,7.50
2017,04,19,03,37,7.50
2017,04,19,03,38,7.50
2017,04,19,03,39,7.50
2017,04,19,03,40,7.40
2017,04,19,03,41,7.40
2017,04,19,03,42,7.40
2017,04,19,03,43,7.40
2017,04,19,03,44,7.40
2017,04,19,03,45,7.50
2017,04,19,03,46,7.60
2017,04,19,03,47,7.70
2017,04,19,03,48,7.80
2017,04,19,03,49,7.80
2017,04,19,03,50,7.80
2017,04,19,03,51,7.80
2017,04,19,03,52,7.80
2017,04,19,03,53,7.80
2017,04,19,03,54,7.70
2017,04,19,03,55,7.70
2017,04,19,03,56,7.80
2017,04,19,03,57,7.70
2017,04,19,03,58,7.70
2017,04,19,03,59,7.70
2017,04,19,04,00,7.70
2017,04,19,04,01,7.60
2017,04,19,04,02,7.60
2017,04,19,04,03,7.60
2017,04,19,04,04,7.60
2017,04,19,04,05,7.60
2017,04,19,04,06,7.50
2017,04,19,04,07,7.60
2017,04,19,04,08,7.60
2017,04,19,04,09,7.60
2017,04,19,04,10,7.60
2017,04,19,04,11,7.60
2017,04,19,04,12,7.50
2017,04,19,04,13,7.50
2017,04,19,04,14,7.50
2017,04,19,04,15,7.40
2017,04,19,04,16,7.40
2017,04,19,04,17,7.40
2017,04,19,04,18,7.50
2017,04,19,04,19,7.50
2017,04,19,04,20,7.60
2017,04,19,04,21,7.60
2017,04,19,04,22,7.60
2017,04,19,04,23,7.70
2017,04,19,04,24,7.70
2017,04,19,04,25,7.60
2017,04,19,04,26,7.60
2017,04,19,04,27,7.60
2017,04,19,04,28,7.60
2017,04,19,04,29,7.70
2017,04,19,04,30,7.80
2017,04,19,04,31,7.80
2017,04,19,04,32,7.80
2017,04,19,04,33,7.90
2017,04,19,04,34,7.90
2017,04,19,04,35,7.90
2017,04,19,04,36,8.00
2017,04,19,04,37,8.10
2017,04,19,04,38,8.10
2017,04,19,04,39,8.20
2017,04,19,04,40,8.20
2017,04,19,04,41,8.20
2017,04,19,04,42,8.20
2017,04,19,04,43,8.20
2017,04,19,04,44,8.30
2017,04,19,04,45,8.30
2017,04,19,04,46,8.40
2017,04,19,04,47,8.40
2017,04,19,04,48,8.40
2017,04,19,04,49,8.40
2017,04,19,04,50,8.40
2017,04,19,04,51,8.40
2017,04,19,04,52,8.40
2017,04,19,04,53,8.40
2017,04,19,04,54,8.40
2017,04,19,04,55,8.40
2017,04,19,04,56,8.40
2017,04,19,04,57,8.40
2017,04,19,04,58,8.30
2017,04,19,04,59,8.30
2017,04,19,05,00,8.30
2017,04,19,05,01,8.30
2017,04,19,05,02,8.30
2017,04,19,05,03,8.30
2017,04,19,05,04,8.30
2017,04,19,05,05,8.30
2017,04,19,05,06,8.30
2017,04,19,05,07,8.40
2017,04,19,05,08,8.40
2017,04,19,05,09,8.40
2017,04,19,05,10,8.40
2017,04,19,05,11,8.40
2017,04,19,05,12,8.40
2017,04,19,05,13,8.40
2017,04,19,05,14,8.40
2017,04,19,05,15,8.40
2017,04,19,05,16,8.40
2017,04,19,05,17,8.40
2017,04,19,05,18,8.40
2017,04,19,05,19,8.40
2017,04,19,05,20,8.50
2017,04,19,05,21,8.50
2017,04,19,05,22,8.60
2017,04,19,05,23,8.60
2017,04,19,05,24,8.60
2017,04,19,05,25,8.60
2017,04,19,05,26,8.60
2017,04,19,05,27,8.60
2017,04,19,05,28,8.60
2017,04,19,05,29,8.70
2017,04,19,05,30,8.70
2017,04,19,05,31,8.70
2017,04,19,05,32,8.70
2017,04,19,05,33,8.70
2017,04,19,05,34,8.70
2017,04,19,05,35,8.70
2017,04,19,05,36,8.70
2017,04,19,05,37,8.80
2017,04,19,05,38,8.80
2017,04,19,05,39,8.80
2017,04,19,05,40,8.80
2017,04,19,05,41,8.80
2017,04,19,05,42,8.80
2017,04,19,05,43,8.90
2017,04,19,05,44,8.90
2017,04,19,05,45,8.90
2017,04,19,05,46,8.90
2017,04,19,05,47,8.90
2017,04,19,05,48,8.90
2017,04,19,05,49,8.90
2017,04,19,05,50,8.90
2017,04,19,05,51,8.90
2017,04,19,05,52,8.90
2017,04,19,05,53,8.90
2017,04,19,05,54,8.90
2017,04,19,05,55,8.90
2017,04,19,05,56,8.90
2017,04,19,05,57,8.90
2017,04,19,05,58,9.00
2017,04,19,05,59,9.10
2017,04,19,06,00,9.10
2017,04,19,06,01,9.20
2017,04,19,06,02,9.20
2017,04,19,06,03,9.30
2017,04,19,06,04,9.30
2017,04,19,06,05,9.30
2017,04,19,06,06,9.30
2017,04,19,06,07,9.30
2017,04,19,06,08,9.30
2017,04,19,06,09,9.30
2017,04,19,06,10,9.30
2017,04,19,06,11,9.30
2017,04,19,06,12,9.30
2017,04,19,06,13,9.30
2017,04,19,06,14,9.30
2017,04,19,06,15,9.30
2017,04,19,06,16,9.30
2017,04,19,06,17,9.20
2017,04,19,06,18,9.20
2017,04,19,06,19,9.20
2017,04,19,06,20,9.20
2017,04,19,06,21,9.20
2017,04,19,06,22,9.20
2017,04,19,06,23,9.20
2017,04,19,06,24,9.20
2017,04,19,06,25,9.20
2017,04,19,06,26,9.10
2017,04,19,06,27,9.10
2017,04,19,06,28,9.10
2017,04,19,06,29,9.10
2017,04,19,06,30,9.10
2017,04,19,06,31,9.00
2017,04,19,06,32,9.00
2017,04,19,06,33,8.90
2017,04,19,06,34,8.90
2017,04,19,06,35,8.80
2017,04,19,06,36,8.70
2017,04,19,06,37,8.70
2017,04,19,06,38,8.70
2017,04,19,06,39,8.70
2017,04,19,06,40,8.70
2017,04,19,06,41,8.70
2017,04,19,06,42,8.70
2017,04,19,06,43,8.70
2017,04,19,06,44,8.70
2017,04,19,06,45,8.70
2017,04,19,06,46,8.70
2017,04,19,06,47,8.70
2017,04,19,06,48,8.70
2017,04,19,06,49,8.70
2017,04,19,06,50,8.70
2017,04,19,06,51,8.70
2017,04,19,06,52,8.80
2017,04,19,06,53,8.90
2017,04,19,06,54,8.90
2017,04,19,06,55,8.90
2017,04,19,06,56,9.00
2017,04,19,06,57,9.00
2017,04,19,06,58,9.10
2017,04,19,06,59,9.10
2017,04,19,07,00,9.20
2017,04,19,07,01,9.20
2017,04,19,07,02,9.20
2017,04,19,07,03,9.30
2017,04,19,07,04,9.30
2017,04,19,07,05,9.30
2017,04,19,07,06,9.30
2017,04,19,07,07,9.20
2017,04,19,07,08,9.20
2017,04,19,07,09,9.20
2017,04,19,07,10,9.20
2017,04,19,07,11,9.20
2017,04,19,07,12,9.20
2017,04,19,07,13,9.20
2017,04,19,07,14,9.20
2017,04,19,07,15,9.20
2017,04,19,07,16,9.20
2017,04,19,07,17,9.20
2017,04,19,07,18,9.20
2017,04,19,07,19,9.20
2017,04,19,07,20,9.20
2017,04,19,07,21,9.20
2017,04,19,07,22,9.30
2017,04,19,07,23,9.30
2017,04,19,07,24,9.30
2017,04,19,07,25,9.30
2017,04,19,07,26,9.30
2017,04,19,07,27,9.40
2017,04,19,07,28,9.40
2017,04,19,07,29,9.40
2017,04,19,07,30,9.40
2017,04,19,07,31,9.40
2017,04,19,07,32,9.40
2017,04,19,07,33,9.40
2017,04,19,07,34,9.40
2017,04,19,07,35,9.40
2017,04,19,07,36,9.40
2017,04,19,07,37,9.40
2017,04,19,07,38,9.50
2017,04,19,07,39,9.50
2017,04,19,07,40,9.50
2017,04,19,07,41,9.60
2017,04,19,07,42,9.60
2017,04,19,07,43,9.60
2017,04,19,07,44,9.60
2017,04,19,07,45,9.60
2017,04,19,07,46,9.60
2017,04,19,07,47,9.60
2017,04,19,07,48,9.60
2017,04,19,07,49,9.60
2017,04,19,07,50,9.60
2017,04,19,07,51,9.60
2017,04,19,07,52,9.60
2017,04,19,07,53,9.60
2017,04,19,07,54,9.60
2017,04,19,07,55,9.60
2017,04,19,07,56,9.60
2017,04,19,07,57,9.60
2017,04,19,07,58,9.70
2017,04,19,07,59,9.70
2017,04,19,08,00,9.70
2017,04,19,08,01,9.70
2017,04,19,08,02,9.70
2017,04,19,08,03,9.80
2017,04,19,08,04,9.80
2017,04,19,08,05,9.80
2017,04,19,08,06,9.80
2017,04,19,08,07,9.80
2017,04,19,08,08,9.90
2017,04,19,08,09,9.90
2017,04,19,08,10,9.90
2017,04,19,08,11,10.00
2017,04,19,08,12,10.00
2017,04,19,08,13,10.00
2017,04,19,08,14,10.10
2017,04,19,08,15,10.10
2017,04,19,08,16,10.10
2017,04,19,08,17,10.10
2017,04,19,08,18,10.10
2017,04,19,08,19,10.10
2017,04,19,08,20,10.20
2017,04,19,08,21,10.20
2017,04,19,08,22,10.20
2017,04,19,08,23,10.20
2017,04,19,08,24,10.20
2017,04,19,08,25,10.20
2017,04,19,08,26,10.30
2017,04,19,08,27,10.30
2017,04,19,08,28,10.30
2017,04,19,08,29,10.30
2017,04,19,08,30,10.30
2017,04,19,08,31,10.30
2017,04,19,08,32,10.30
2017,04,19,08,33,10.30
2017,04,19,08,34,10.30
2017,04,19,08,35,10.30
2017,04,19,08,36,10.30
2017,04,19,08,37,10.30
2017,04,19,08,38,10.30
2017,04,19,08,39,10.30
2017,04,19,08,40,10.30
2017,04,19,08,41,10.30
2017,04,19,08,42,10.30
2017,04,19,08,43,10.30
2017,04,19,08,44,10.30
2017,04,19,08,45,10.30
2017,04,19,08,46,10.30
2017,04,19,08,47,10.30
2017,04,19,08,48,10.30
2017,04,19,08,49,10.30
2017,04,19,08,50,10.30
2017,04,19,08,51,10.30
2017,04,19,08,52,10.30
2017,04,19,08,53,10.30
2017,04,19,08,54,10.30
2017,04,19,08,55,10.30
2017,04,19,08,56,10.30
2017,04,19,08,57,10.30
2017,04,19,08,58,10.30
2017,04,19,08,59,10.30
2017,04,19,09,00,10.30
2017,04,19,09,01,10.40
2017,04,19,09,02,10.40
2017,04,19,09,03,10.40
2017,04,19,09,04,10.40
2017,04,19,09,05,10.40
2017,04,19,09,06,10.40
2017,04,19,09,07,10.40
2017,04,19,09,08,10.40
2017,04,19,09,09,10.40
2017,04,19,09,10,10.40
2017,04,19,09,11,10.40
2017,04,19,09,12,10.40
2017,04,19,09,13,10.50
2017,04,19,09,14,10.50
2017,04,19,09,15,10.50
2017,04,19,09,16,10.50
2017,04,19,09,17,10.50
2017,04,19,09,18,10.50
2017,04,19,09,19,10.50
2017,04,19,09,20,10.50
2017,04,19,09,21,10.60
2017,04,19,09,22,10.50
2017,04,19,09,23,10.50
2017,04,19,09,24,10.50
2017,04,19,09,25,10.40
2017,04,19,09,26,10.40
2017,04,19,09,27,10.40
2017,04,19,09,28,10.40
2017,04,19,09,29,10.40
2017,04,19,09,30,10.40
2017,04,19,09,31,10.40
2017,04,19,09,32,10.40
2017,04,19,09,33,10.40
2017,04,19,09,34,10.30
2017,04,19,09,35,10.30
2017,04,19,09,36,10.30
2017,04,19,09,37,10.30
2017,04,19,09,38,10.30
2017,04,19,09,39,10.40
2017,04,19,09,40,10.40
2017,04,19,09,41,10.40
2017,04,19,09,42,10.40
2017,04,19,09,43,10.40
2017,04,19,09,44,10.30
2017,04,19,09,45,10.30
2017,04,19,09,46,10.30
2017,04,19,09,47,10.30
2017,04,19,09,48,10.30
2017,04,19,09,49,10.30
2017,04,19,09,50,10.30
2017,04,19,09,51,10.30
2017,04,19,09,52,10.20
2017,04,19,09,53,10.20
2017,04,19,09,54,10.20
2017,04,19,09,55,10.20
2017,04,19,09,56,10.20
2017,04,19,09,57,10.20
2017,04,19,09,58,10.20
2017,04,19,09,59,10.20
2017,04,19,10,00,10.20
2017,04,19,10,01,10.20
2017,04,19,10,02,10.20
2017,04,19,10,03,10.20
2017,04,19,10,04,10.20
2017,04,19,10,05,10.20
2017,04,19,10,06,10.20
2017,04,19,10,07,10.20
2017,04,19,10,08,10.30
2017,04,19,10,09,10.30
2017,04,19,10,10,10.30
2017,04,19,10,11,10.40
2017,04,19,10,12,10.40
2017,04,19,10,13,10.40
2017,04,19,10,14,10.40
2017,04,19,10,15,10.40
2017,04,19,10,16,10.50
2017,04,19,10,17,10.50
2017,04,19,10,18,10.50
2017,04,19,10,19,10.60
2017,04,19,10,20,10.60
2017,04,19,10,21,10.60
2017,04,19,10,22,10.60
2017,04,19,10,23,10.70
2017,04,19,10,24,10.70
2017,04,19,10,25,10.70
2017,04,19,10,26,10.70
2017,04,19,10,27,10.70
2017,04,19,10,28,10.70
2017,04,19,10,29,10.80
2017,04,19,10,30,10.80
2017,04,19,10,31,10.80
2017,04,19,10,32,10.80
2017,04,19,10,33,10.80
2017,04,19,10,34,10.80
2017,04,19,10,35,10.80
2017,04,19,10,36,10.90
2017,04,19,10,37,10.90
2017,04,19,10,38,11.00
2017,04,19,10,39,11.00
2017,04,19,10,40,11.10
2017,04,19,10,41,11.10
2017,04,19,10,42,11.10
2017,04,19,10,43,11.10
2017,04,19,10,44,11.10
2017,04,19,10,45,11.10
2017,04,19,10,46,11.10
2017,04,19,10,47,11.20
2017,04,19,10,48,11.20
2017,04,19,10,49,11.20
2017,04,19,10,50,11.20
2017,04,19,10,51,11.20
2017,04,19,10,52,11.20
2017,04,19,10,53,11.20
2017,04,19,10,54,11.10
2017,04,19,10,55,11.10
2017,04,19,10,56,11.10
2017,04,19,10,57,11.10
2017,04,19,10,58,11.10
2017,04,19,10,59,11.10
2017,04,19,11,00,11.10
2017,04,19,11,01,11.10
2017,04,19,11,02,11.10
2017,04,19,11,03,11.10
2017,04,19,11,04,11.10
2017,04,19,11,05,11.20
2017,04,19,11,06,11.20
2017,04,19,11,07,11.20
2017,04,19,11,08,11.30
2017,04,19,11,09,11.30
2017,04,19,11,10,11.30
2017,04,19,11,11,11.40
2017,04,19,11,12,11.50
2017,04,19,11,13,11.50
2017,04,19,11,14,11.60
2017,04,19,11,15,11.60
2017,04,19,11,16,11.70
2017,04,19,11,17,11.70
2017,04,19,11,18,11.70
2017,04,19,11,19,11.70
2017,04,19,11,20,11.70
2017,04,19,11,21,11.80
2017,04,19,11,22,11.80
2017,04,19,11,23,11.80
2017,04,19,11,24,11.80
2017,04,19,11,25,11.80
2017,04,19,11,26,11.90
2017,04,19,11,27,11.90
2017,04,19,11,28,11.90
2017,04,19,11,29,11.90
2017,04,19,11,30,11.90
2017,04,19,11,31,11.90
2017,04,19,11,32,11.90
2017,04,19,11,33,11.90
2017,04,19,11,34,11.90
2017,04,19,11,35,11.90
2017,04,19,11,36,12.00
2017,04,19,11,37,12.00
2017,04,19,11,38,12.10
2017,04,19,11,39,12.10
2017,04,19,11,40,12.20
2017,04,19,11,41,12.20
2017,04,19,11,42,12.20
2017,04,19,11,43,12.20
2017,04,19,11,44,12.20
2017,04,19,11,45,12.20
2017,04,19,11,46,12.30
2017,04,19,11,47,12.30
2017,04,19,11,48,12.40
2017,04,19,11,49,12.50
2017,04,19,11,50,12.60
2017,04,19,11,51,12.60
2017,04,19,11,52,12.60
2017,04,19,11,53,12.60
2017,04,19,11,54,12.60
2017,04,19,11,55,12.50
2017,04,19,11,56,12.50
2017,04,19,11,57,12.50
2017,04,19,11,58,12.50
2017,04,19,11,59,12.50
2017,04,19,12,00,12.50
2017,04,19,12,01,12.50
2017,04,19,12,02,12.60
2017,04,19,12,03,12.60
2017,04,19,12,04,12.60
2017,04,19,12,05,12.70
2017,04,19,12,06,12.70
2017,04,19,12,07,12.80
2017,04,19,12,08,12.80
2017,04,19,12,09,12.90
2017,04,19,12,10,12.90
2017,04,19,12,11,13.00
2017,04,19,12,12,13.10
2017,04,19,12,13,13.10
2017,04,19,12,14,13.20
2017,04,19,12,15,13.20
2017,04,19,12,16,13.20
2017,04,19,12,17,13.20
2017,04,19,12,18,13.20
2017,04,19,12,19,13.20
2017,04,19,12,20,13.20
2017,04,19,12,21,13.30
2017,04,19,12,22,13.30
2017,04,19,12,23,13.30
2017,04,19,12,24,13.30
2017,04,19,12,25,13.30
2017,04,19,12,26,13.30
2017,04,19,12,27,13.30
2017,04,19,12,28,13.30
2017,04,19,12,29,13.30
2017,04,19,12,30,13.30
2017,04,19,12,31,13.30
2017,04,19,12,32,13.30
2017,04,19,12,33,13.30
2017,04,19,12,34,13.30
2017,04,19,12,35,13.20
2017,04,19,12,36,13.20
2017,04,19,12,37,13.20
2017,04,19,12,38,13.30
2017,04,19,12,39,13.30
2017,04,19,12,40,13.30
2017,04,19,12,41,13.30
2017,04,19,12,42,13.30
2017,04,19,12,43,13.30
2017,04,19,12,44,13.30
2017,04,19,12,45,13.40
2017,04,19,12,46,13.50
2017,04,19,12,47,13.60
2017,04,19,12,48,13.60
2017,04,19,12,49,13.70
2017,04,19,12,50,13.70
2017,04,19,12,51,13.80
2017,04,19,12,52,13.80
2017,04,19,12,53,13.70
2017,04,19,12,54,13.70
2017,04,19,12,55,13.60
2017,04,19,12,56,13.60
2017,04,19,12,57,13.50
2017,04,19,12,58,13.50
2017,04,19,12,59,13.40
2017,04,19,13,00,13.50
2017,04,19,13,01,13.50
2017,04,19,13,02,13.60
2017,04,19,13,03,13.60
2017,04,19,13,04,13.60
2017,04,19,13,05,13.70
2017,04,19,13,06,13.80
2017,04,19,13,07,13.80
2017,04,19,13,08,13.80
2017,04,19,13,09,13.80
2017,04,19,13,10,13.90
2017,04,19,13,11,13.90
2017,04,19,13,12,14.00
2017,04,19,13,13,14.00
2017,04,19,13,14,14.10
2017,04,19,13,15,14.00
2017,04,19,13,16,14.00
2017,04,19,13,17,14.00
2017,04,19,13,18,14.00
2017,04,19,13,19,13.90
2017,04,19,13,20,13.90
2017,04,19,13,21,13.90
2017,04,19,13,22,13.80
2017,04,19,13,23,13.80
2017,04,19,13,24,13.70
2017,04,19,13,25,13.70
2017,04,19,13,26,13.70
2017,04,19,13,27,13.70
2017,04,19,13,28,13.70
2017,04,19,13,29,13.70
2017,04,19,13,30,13.60
2017,04,19,13,31,13.60
2017,04,19,13,32,13.60
2017,04,19,13,33,13.60
2017,04,19,13,34,13.70
2017,04,19,13,35,13.70
2017,04,19,13,36,13.70
2017,04,19,13,37,13.80
2017,04,19,13,38,13.80
2017,04,19,13,39,13.90
2017,04,19,13,40,14.00
2017,04,19,13,41,14.00
2017,04,19,13,42,14.10
2017,04,19,13,43,14.10
2017,04,19,13,44,14.10
2017,04,19,13,45,14.10
2017,04,19,13,46,14.10
2017,04,19,13,47,14.10
2017,04,19,13,48,14.10
2017,04,19,13,49,14.00
2017,04,19,13,50,14.00
2017,04,19,13,51,14.00
2017,04,19,13,52,13.90
2017,04,19,13,53,13.90
2017,04,19,13,54,13.90
2017,04,19,13,55,13.90
2017,04,19,13,56,13.90
2017,04,19,13,57,13.90
2017,04,19,13,58,14.00
2017,04,19,13,59,14.10
2017,04,19,14,00,14.10
2017,04,19,14,01,14.10
2017,04,19,14,02,14.10
2017,04,19,14,03,14.10
2017,04,19,14,04,14.10
2017,04,19,14,05,14.10
2017,04,19,14,06,14.10
2017,04,19,14,07,14.10
2017,04,19,14,08,14.10
2017,04,19,14,09,14.20
2017,04,19,14,10,14.20
2017,04,19,14,11,14.20
2017,04,19,14,12,14.30
2017,04,19,14,13,14.30
2017,04,19,14,14,14.30
2017,04,19,14,15,14.30
2017,04,19,14,16,14.40
2017,04,19,14,17,14.40
2017,04,19,14,18,14.40
2017,04,19,14,19,14.30
2017,04,19,14,20,14.30
2017,04,19,14,21,14.30
2017,04,19,14,22,14.40
2017,04,19,14,23,14.50
2017,04,19,14,24,14.50
2017,04,19,14,25,14.60
2017,04,19,14,26,14.60
2017,04,19,14,27,14.70
2017,04,19,14,28,14.70
2017,04,19,14,29,14.60
2017,04,19,14,30,14.60
2017,04,19,14,31,14.60
2017,04,19,14,32,14.60
2017,04,19,14,33,14.60
2017,04,19,14,34,14.50
2017,04,19,14,35,14.40
2017,04,19,14,36,14.40
2017,04,19,14,37,14.40
2017,04,19,14,38,14.40
2017,04,19,14,39,14.40
2017,04,19,14,40,14.40
2017,04,19,14,41,14.40
2017,04,19,14,42,14.40
2017,04,19,14,43,14.40
2017,04,19,14,44,14.50
2017,04,19,14,45,14.50
2017,04,19,14,46,14.60
2017,04,19,14,47,14.60
2017,04,19,14,48,14.60
2017,04,19,14,49,14.70
2017,04,19,14,50,14.70
2017,04,19,14,51,14.70
2017,04,19,14,52,14.70
2017,04,19,14,53,14.70
2017,04,19,14,54,14.70
2017,04,19,14,55,14.70
2017,04,19,14,56,14.80
2017,04,19,14,57,14.70
2017,04,19,14,58,14.70
2017,04,19,14,59,14.70
2017,04,19,15,00,14.60
2017,04,19,15,01,14.60
2017,04,19,15,02,14.60
2017,04,19,15,03,14.60
2017,04,19,15,04,14.60
2017,04,19,15,05,14.60
2017,04,19,15,06,14.60
2017,04,19,15,07,14.60
2017,04,19,15,08,14.70
2017,04,19,15,09,14.60
2017,04,19,15,10,14.60
2017,04,19,15,11,14.60
2017,04,19,15,12,14.60
2017,04,19,15,13,14.50
2017,04,19,15,14,14.50
2017,04,19,15,15,14.40
2017,04,19,15,16,14.40
2017,04,19,15,17,14.40
2017,04,19,15,18,14.40
2017,04,19,15,19,14.40
2017,04,19,15,20,14.40
2017,04,19,15,21,14.40
2017,04,19,15,22,14.40
2017,04,19,15,23,14.40
2017,04,19,15,24,14.40
2017,04,19,15,25,14.40
2017,04,19,15,26,14.40
2017,04,19,15,27,14.30
2017,04,19,15,28,14.30
2017,04,19,15,29,14.20
2017,04,19,15,30,14.20
2017,04,19,15,31,14.20
2017,04,19,15,32,14.20
2017,04,19,15,33,14.20
2017,04,19,15,34,14.20
2017,04,19,15,35,14.10
2017,04,19,15,36,14.10
2017,04,19,15,37,14.00
2017,04,19,15,38,14.00
2017,04,19,15,39,14.00
2017,04,19,15,40,14.00
2017,04,19,15,41,14.00
2017,04,19,15,42,14.10
2017,04,19,15,43,14.10
2017,04,19,15,44,14.00
2017,04,19,15,45,14.00
2017,04,19,15,46,14.00
2017,04,19,15,47,14.00
2017,04,19,15,48,14.00
2017,04,19,15,49,14.00
2017,04,19,15,50,14.10
2017,04,19,15,51,14.00
2017,04,19,15,52,13.90
2017,04,19,15,53,13.90
2017,04,19,15,54,14.00
2017,04,19,15,55,14.00
2017,04,19,15,56,14.10
2017,04,19,15,57,14.20
2017,04,19,15,58,14.20
2017,04,19,15,59,14.20
2017,04,19,16,00,14.20
2017,04,19,16,01,14.30
2017,04,19,16,02,14.30
2017,04,19,16,03,14.40
2017,04,19,16,04,14.40
2017,04,19,16,05,14.40
2017,04,19,16,06,14.50
2017,04,19,16,07,14.60
2017,04,19,16,08,14.60
2017,04,19,16,09,14.70
2017,04,19,16,10,14.70
2017,04,19,16,11,14.70
2017,04,19,16,12,14.70
2017,04,19,16,13,14.70
2017,04,19,16,14,14.60
2017,04,19,16,15,14.60
2017,04,19,16,16,14.50
2017,04,19,16,17,14.40
2017,04,19,16,18,14.40
2017,04,19,16,19,14.40
2017,04,19,16,20,14.40
2017,04,19,16,21,14.40
2017,04,19,16,22,14.40
2017,04,19,16,23,14.40
2017,04,19,16,24,14.40
2017,04,19,16,25,14.40
2017,04,19,16,26,14.40
2017,04,19,16,27,14.40
2017,04,19,16,28,14.30
2017,04,19,16,29,14.30
2017,04,19,16,30,14.30
2017,04,19,16,31,14.30
2017,04,19,16,32,14.30
2017,04,19,16,33,14.30
2017,04,19,16,34,14.30
2017,04,19,16,35,14.30
2017,04,19,16,36,14.30
2017,04,19,16,37,14.30
2017,04,19,16,38,14.20
2017,04,19,16,39,14.20
2017,04,19,16,40,14.30
2017,04,19,16,41,14.30
2017,04,19,16,42,14.30
2017,04,19,16,43,14.30
2017,04,19,16,44,14.30
2017,04,19,16,45,14.30
2017,04,19,16,46,14.30
2017,04,19,16,47,14.30
2017,04,19,16,48,14.10
2017,04,19,16,49,14.00
2017,04,19,16,50,13.90
2017,04,19,16,51,13.80
2017,04,19,16,52,13.60
2017,04,19,16,53,13.60
2017,04,19,16,54,13.50
2017,04,19,16,55,13.50
2017,04,19,16,56,13.50
2017,04,19,16,57,13.40
2017,04,19,16,58,13.40
2017,04,19,16,59,13.30
2017,04,19,17,00,13.30
2017,04,19,17,01,13.20
2017,04,19,17,02,13.20
2017,04,19,17,03,13.10
2017,04,19,17,04,13.10
2017,04,19,17,05,13.00
2017,04,19,17,06,13.00
2017,04,19,17,07,13.00
2017,04,19,17,08,12.90
2017,04,19,17,09,12.90
2017,04,19,17,10,12.90
2017,04,19,17,11,12.90
2017,04,19,17,12,12.90
2017,04,19,17,13,12.90
2017,04,19,17,14,12.80
2017,04,19,17,15,12.80
2017,04,19,17,16,12.80
2017,04,19,17,17,12.80
2017,04,19,17,18,12.80
2017,04,19,17,19,12.80
2017,04,19,17,20,12.80
2017,04,19,17,21,12.80
2017,04,19,17,22,12.80
2017,04,19,17,23,12.80
2017,04,19,17,24,12.80
2017,04,19,17,25,12.80
2017,04,19,17,26,12.70
2017,04,19,17,27,12.70
2017,04,19,17,28,12.70
2017,04,19,17,29,12.70
2017,04,19,17,30,12.70
2017,04,19,17,31,12.70
2017,04,19,17,32,12.70
2017,04,19,17,33,12.60
2017,04,19,17,34,12.60
2017,04,19,17,35,12.50
2017,04,19,17,36,12.50
2017,04,19,17,37,12.40
2017,04,19,17,38,12.40
2017,04,19,17,39,12.40
2017,04,19,17,40,12.40